Location: Kaarina
(60.4167°N, 22.4167°E)
Time: 17:20:05
(UTC+02:00)

Daily predictions for brighter satellites

Satellite Brightness Start Highest point End
(mag) Time Altitude Azimuth Time Altitude Azimuth Time Altitude Azimuth
NOSS 3-2 (C) 3.9 16:03:48 10° W 16:10:29 70° N 16:18:04 10° E
Cosmos 2151 Rocket 3.7 16:09:10 10° N 16:13:37 61° ENE 16:18:04 10° SSE
Lacrosse 5 4.3 16:10:38 10° W 16:14:55 28° SW 16:19:12 10° SSE
Cosmos 389 Rocket 4.2 16:13:03 10° NNE 16:15:10 15° NE 16:17:17 10° E
Cosmos 1441 Rocket 3.9 16:13:42 10° SSE 16:17:13 37° E 16:20:43 10° NNE
Meteor 1-31 Rocket 3.8 16:15:52 10° S 16:19:39 50° W 16:23:31 10° NNW
Okean 2 Rocket 3.4 16:18:00 10° NNW 16:22:33 75° W 16:27:02 10° S
Cosmos 2263 Rocket 3.3 16:17:52 10° WNW 16:22:43 29° N 16:27:32 10° NE
Cosmos 1782 Rocket 4.5 16:19:00 10° NNW 16:23:18 53° W 16:27:36 10° S
Meteor 1-11 Rocket 3.8 16:18:15 10° NNW 16:24:02 89° W 16:29:40 10° SSE
Cosmos 1455 Rocket 4.5 16:21:03 10° N 16:24:08 18° NE 16:27:11 10° E
Cosmos 1503 Rocket 4.1 16:21:54 10° SW 16:27:07 84° NW 16:32:20 10° NNE
Cosmos 1092 Rocket 4.1 16:23:22 10° N 16:29:29 54° ENE 16:35:36 10° SE
ATLAS 3B R/B 2.7 16:24:47 10° WNW 16:31:46 78° NNE 16:38:25 10° ESE
Cosmos 1812 4.4 16:29:28 10° ESE 16:31:59 17° E 16:34:30 10° NE
Okean 1-7 3.1 16:28:10 10° S 16:32:33 71° E 16:36:56 10° NNE
Cosmos 1666 4.2 16:31:17 10° NNE 16:33:48 17° NE 16:36:18 10° E
Cosmos 1300 Rocket 3.6 16:30:45 10° N 16:35:07 63° ENE 16:39:29 10° SSE
ERS-2 3.6 16:34:19 10° E 16:36:46 17° NE 16:39:14 10° N
Meteor 1-4 Rocket 2.9 16:33:30 10° N 16:37:09 46° ENE 16:40:44 10° SE
MSX 3.8 16:32:45 10° SSE 16:38:32 77° ENE 16:44:20 10° NNW
USA 229 DEB 4.2 16:32:31 10° SSW 16:39:03 50° SE 16:45:40 10° ENE
USA 229 4.2 16:32:38 10° SSW 16:39:09 50° SE 16:45:46 10° ENE
Cosmos 2082 4.1 16:33:49 10° NW 16:39:09 41° NNE 16:44:29 10° E
USA 161 3.1 16:38:07 12° ENE 16:39:31 16° E 16:41:21 10° SE
Cosmos 2369 Rocket 2.8 16:35:08 10° S 16:40:18 40° ESE 16:45:26 10° NE
Cosmos 968 Rocket 3.6 16:37:00 10° SSW 16:42:13 70° ESE 16:47:31 10° NE
YAOGAN 1 3.4 16:38:57 10° ESE 16:42:37 28° NE 16:46:19 10° N
Cosmos 2221 Rocket 3.6 16:38:41 10° S 16:43:09 78° E 16:47:39 10° NNE
Meteor 2-20 Rocket 4.4 16:37:59 10° NNW 16:44:07 84° ENE 16:50:13 10° SSE
DNEPR-1 R/B 4.0 16:42:14 10° WNW 16:46:30 51° N 16:51:19 10° E
CSL-04 Rocket 3.7 16:42:43 10° SE 16:48:04 60° ENE 16:53:31 10° NNW
Cosmos 2026 Rocket 4.2 16:43:08 10° N 16:49:23 51° ENE 16:55:35 10° SE
Geosat 4.2 16:44:36 10° NE 16:49:38 68° NW 16:54:38 10° SW
CZ-2C R/B 2.6 16:46:18 10° SSE 16:51:31 88° WSW 16:56:43 10° NNW
MOZ.5/SAFIR/RUBIN 5/SL-8 4.1 16:49:01 10° NNE 16:53:46 71° WNW 16:58:31 10° SSW
Cosmos 2034 Rocket 4.1 16:47:53 10° S 16:54:03 61° E 17:00:12 10° NNE
Cosmos 2219 3.1 16:49:17 10° NW 16:54:57 79° NE 17:00:36 10° SE
Cosmos 2233 Rocket 4.4 16:49:04 10° SSW 16:55:11 64° WNW 17:01:18 10° N
Cosmos 2227 Rocket 2.4 16:49:57 10° NW 16:55:32 51° NE 17:01:03 10° ESE
SPOT 3 Rocket 4.3 16:51:35 10° ESE 16:56:02 30° NE 17:00:29 10° N
FENGYUN 3A 4.4 16:51:53 10° ESE 16:56:29 29° NE 17:01:04 10° N
Cosmos 1680 Rocket 4.1 16:51:32 10° NW 16:56:45 62° WSW 17:01:57 10° SSE
Intercosmos 25 2.8 16:54:31 10° S 16:58:02 75° E 17:01:13 10° NNE
Cosmos 1703 Rocket 4.2 16:56:46 10° SSW 17:01:06 57° WNW 17:05:25 10° N
ATLAS CENTAUR R/B 3.9 16:58:05 10° WNW 17:01:16 24° SW 17:04:32 10° S
Okean 1 Rocket 3.0 16:56:51 10° NNW 17:01:21 72° ENE 17:05:49 10° SSE
Cosmos 2278 Rocket 3.0 16:58:00 10° WSW 17:03:24 43° NNW 17:08:23 12° NE
Okean O Rocket 4.4 17:02:16 10° SW 17:05:19 18° W 17:08:24 10° NW
Cosmos 1743 3.5 17:02:23 10° N 17:05:50 29° ENE 17:09:15 10° SE
Cosmos 1437 Rocket 3.6 17:02:09 10° NNW 17:05:54 53° W 17:09:35 10° S
Cosmos 1975 Rocket 4.4 17:02:56 10° SE 17:06:13 20° E 17:08:21 15° NE
SMAP 3.0 17:04:01 10° SE 17:08:37 63° ENE 17:13:15 10° NNW
Cosmos 1464 Rocket 4.0 17:02:51 10° S 17:09:06 89° ESE 17:15:28 10° NNE
METEOR-M 4.4 17:05:34 10° SE 17:10:37 45° ENE 17:15:43 10° NNW
Cosmos 405 Rocket 3.1 17:10:11 10° SSW 17:13:51 61° WNW 17:17:36 10° NNE
Cosmos 1975 3.0 17:10:23 10° N 17:14:18 47° ENE 17:18:12 10° SE
Envisat 4.5 17:15:02 16° NE 17:15:50 16° NE 17:18:52 10° N
Cosmos 158 Rocket 4.2 17:11:15 10° NNW 17:16:22 48° NE 17:21:18 10° ESE
CENTAUR R/B 3.0 17:09:53 10° W 17:16:54 71° N 17:24:02 14° E
ALOS 2.9 17:13:46 10° ESE 17:17:56 33° ENE 17:22:06 10° N
SL-24 R/B 4.4 17:13:37 10° N 17:18:50 81° E 17:23:42 10° S
IDEFIX/ARIANE 42P 3.6 17:14:11 10° S 17:19:12 48° W 17:24:15 10° NNW
Meteor 1-27 Rocket 3.8 17:13:24 10° SSW 17:19:19 85° ESE 17:25:10 10° NNE
Cosmos 1674 Rocket 3.6 17:16:29 10° S 17:20:42 56° E 17:24:58 10° NNE
Okean-O 4.4 17:16:41 10° SSW 17:20:45 34° W 17:24:51 10° NNW
Cosmos 2297 4.3 17:15:11 10° WSW 17:20:50 54° NW 17:25:42 14° NE
Cosmos 1269 Rocket 4.5 17:15:58 10° NNW 17:21:00 40° NE 17:26:01 10° ESE
Cosmos 1844 Rocket 3.8 17:16:11 10° WNW 17:21:07 30° NNW 17:24:53 15° NE
Cosmos 1428 Rocket 4.5 17:16:11 10° N 17:22:24 60° ENE 17:28:29 10° SSE
Cosmos 2297 Rocket 2.2 17:17:40 10° NW 17:23:17 60° NE 17:28:54 10° ESE
Cosmos 1777 Rocket 4.0 17:19:18 10° SSW 17:24:30 70° ESE 17:28:50 15° NE
USA 238 DEB 3.9 17:18:32 10° WNW 17:25:36 81° SSW 17:32:46 10° SE
USA 238 3.9 17:18:38 10° WNW 17:25:42 81° SSW 17:32:52 10° SE
CZ-4 R/B 1.2 17:23:29 10° SSE 17:27:20 64° ENE 17:31:17 10° NNW
SJ-12 4.5 17:24:07 10° S 17:28:13 62° WSW 17:32:20 10° NNW
Cosmos 2084 Rocket 3.3 17:24:42 10° WSW 17:28:51 82° SSE 17:31:14 24° ENE
Cosmos 1378 Rocket 3.9 17:24:42 10° SSE 17:28:55 44° E 17:32:36 13° NNE
SL-16 R/B 3.5 17:23:51 10° NNE 17:29:44 44° NW 17:35:33 10° WSW
Cosmos 1271 Rocket 2.9 17:27:51 10° N 17:31:30 45° ENE 17:35:09 10° SE
AQUARIUS 4.1 17:27:39 10° SSE 17:32:10 87° ENE 17:36:43 10° NNW
CORIOLIS 4.1 17:27:18 10° SSE 17:32:44 83° ENE 17:38:10 10° NNW
SJ-7 4.4 17:29:29 10° SSE 17:33:30 82° WSW 17:37:32 10° NNW
Cosmos 1898 Rocket 4.4 17:29:06 10° SSE 17:33:30 28° ESE 17:35:36 21° ENE
Cosmos 1500 3.3 17:33:29 10° NNW 17:37:19 75° WSW 17:41:06 10° S
Meteor 1-12 Rocket 4.2 17:32:13 10° NNW 17:37:54 78° ENE 17:43:37 10° SSE
Ariane Rocket 3.1 17:33:23 10° SSE 17:38:28 80° WSW 17:43:34 10° NNW
ISS -1.1 17:37:45 10° SW 17:39:54 16° SSW 17:42:03 10° SSE
Cosmos 1484 Rocket 3.0 17:37:31 10° S 17:41:33 76° WSW 17:45:36 10° NNW
CZ-4 R/B 4.4 17:37:39 10° SSE 17:41:45 63° ENE 17:45:52 10° NNW
Cosmos 1943 Rocket 2.2 17:38:22 10° SSW 17:43:57 65° ESE 17:47:45 21° NE
Aureole 1 Rocket 4.0 17:40:04 10° NW 17:44:52 70° WSW 17:51:16 10° SSE
Cosmos 1048 Rocket 4.1 17:39:47 10° NNW 17:45:06 57° NE 17:50:26 10° SE
Cosmos 2279 Rocket 4.3 17:39:52 10° SSE 17:45:43 43° E 17:51:36 10° NNE
COSMOS 2455 3.4 17:40:57 10° WNW 17:46:45 45° N 17:50:10 23° ENE
Cosmos 389 Rocket 2.3 17:47:04 10° NNW 17:50:39 78° ENE 17:54:10 10° SSE
Cosmos 1937 Rocket 4.3 17:47:27 10° SSE 17:51:50 29° ESE 17:52:52 26° E
Okean 3 3.3 17:49:01 10° S 17:53:13 80° ESE 17:56:42 15° NNE
MOS 1 4.2 17:48:33 10° SSE 17:54:13 73° ENE 17:59:54 10° NNW
NOSS 3-1 (C) 3.7 17:50:31 10° SW 17:56:30 64° SE 18:00:33 26° ENE
Cosmos 724 4.3 17:50:57 10° WNW 17:56:49 85° SW 18:02:37 10° SE
NOSS 3-2 (A) 3.9 17:50:51 10° WNW 17:57:53 83° SSW 18:05:46 10° SE
SJ-6B 4.4 18:02:11 22° NNE 18:02:11 22° NNE 18:04:13 10° N
NOSS 3-2 (C) 3.9 17:54:55 10° WNW 18:01:55 89° SSW 18:09:05 13° ESE
Resurs 01 Rocket 3.4 18:03:46 16° NNE 18:03:46 16° NNE 18:05:19 10° N
Cosmos 1455 Rocket 3.0 17:58:19 10° NNW 18:02:49 73° ENE 18:07:15 10° SSE
IRS-1A Rocket 4.4 17:59:01 10° SSE 18:04:37 77° WSW 18:10:11 10° NNW
Cosmos 1544 Rocket 3.4 18:01:56 10° NNW 18:06:23 81° ENE 18:10:45 10° SSE
Cosmos 1812 2.7 18:03:25 10° SSW 18:07:19 83° WNW 18:09:53 21° NNE
Cosmos 2263 Rocket 3.0 18:03:05 10° NW 18:08:08 33° NNE 18:09:39 29° NE
USA 161 2.3 18:08:20 32° NNW 18:09:08 44° WNW 18:11:47 10° SW
Cosmos 1655 Rocket 4.1 18:03:26 10° NNW 18:09:49 82° WSW 18:16:12 10° S
ERS-2 2.0 18:06:15 10° SSE 18:09:57 82° ENE 18:13:39 10° NNW
Cosmos 1666 2.5 18:06:16 10° NNW 18:10:05 86° ENE 18:13:51 10° SSE
FengYun 1-2 T 4.3 18:11:35 10° SE 18:17:03 54° ENE 18:22:35 10° NNW
Cosmos 1634 Rocket 3.9 18:11:34 10° S 18:17:48 89° E 18:24:09 10° NNE
ATLAS 2AS CENTAUR R/B 3.8 18:11:45 10° S 18:18:19 30° ESE 18:20:02 27° E
YAOGAN 1 2.9 18:14:09 10° S 18:18:28 66° WSW 18:22:49 10° NNW
COSMO-SKYMED 1 3.3 18:21:53 34° SE 18:21:53 34° SE 18:25:03 10° SSE
ATLAS 3B R/B 3.3 18:15:44 10° WNW 18:22:22 55° SW 18:28:44 10° SSE
Cosmos 2082 3.7 18:18:07 10° NW 18:23:47 81° SW 18:29:25 10° SSE
Cosmos 2369 Rocket 2.4 18:18:34 10° SW 18:24:09 67° NW 18:27:13 27° NNE
Cosmos 990 Rocket 4.3 18:20:57 10° S 18:25:49 43° ESE 18:26:21 42° E
Cosmos 2263 4.3 18:21:08 10° SW 18:26:50 78° NW 18:29:52 29° NE
Cosmos 2150 Rocket 4.4 18:23:09 10° S 18:28:18 43° ESE 18:28:56 41° E
USA 229 DEB 3.7 18:22:53 10° WSW 18:29:47 84° NNW 18:33:07 35° ENE
USA 229 3.7 18:22:59 10° WSW 18:29:53 84° NNW 18:33:13 35° ENE
USA 116 4.4 18:31:55 34° S 18:31:55 34° S 18:33:57 10° S
NOSS 3-1 (A) 3.5 18:26:29 10° SW 18:32:35 72° SE 18:35:23 38° ENE
DNEPR-1 R/B 3.7 18:29:39 10° WNW 18:34:12 86° NNE 18:35:47 45° ESE
SPOT 3 Rocket 3.6 18:29:52 10° SSE 18:35:04 79° WSW 18:40:17 10° NNW
Cosmos 2266 Rocket 3.8 18:29:56 10° NNW 18:36:01 85° ENE 18:42:08 10° SSE
FENGYUN 3A 3.7 18:30:55 10° SSE 18:36:19 83° WSW 18:41:45 10° NNW
CZ-2C R/B 3.6 18:37:10 44° NNE 18:38:36 73° ESE 18:43:17 10° SSW
Cosmos 2227 Rocket 2.7 18:34:12 10° NW 18:39:47 59° WSW 18:45:20 10° SSE
Meteor 1-28 Rocket 3.1 18:40:30 69° N 18:40:54 82° WNW 18:44:40 10° SSW
Cosmos 1743 3.8 18:38:06 10° NNW 18:41:49 45° W 18:45:31 10° SSW
Cosmos 1975 Rocket 3.1 18:39:05 10° SSW 18:43:35 82° WNW 18:45:32 34° N
H-2A R/B 4.2 18:46:04 12° N 18:46:04 12° N 18:46:38 10° N
Meteor 2-9 Rocket 4.4 18:42:53 10° NNW 18:48:34 73° WSW 18:54:02 10° S
Cosmos 2278 Rocket 3.4 18:43:54 10° WNW 18:48:50 29° N 18:50:14 26° NNE
Okean 1 3.5 18:45:48 10° SSW 18:49:46 67° WNW 18:50:39 49° NNW
Cosmos 2251 Rocket 3.6 18:48:00 10° NNW 18:53:17 56° NE 18:53:18 56° NE
Envisat 3.7 18:55:14 37° NNE 18:55:14 37° NNE 18:58:44 10° N
ALOS 2.8 18:50:34 10° S 18:55:12 60° WSW 18:59:51 10° NNW
NOSS 2-3 (C) 4.5 18:51:21 10° SSW 18:55:58 45° SE 18:55:58 45° SE
Meteor 1-18 Rocket 4.5 18:52:07 10° SSW 18:57:42 68° WNW 19:02:13 17° NNE
Cosmos 1656 Rocket 3.5 18:56:26 10° SW 19:01:59 88° NW 19:03:10 57° NE
Meteor 1-13 Rocket 4.1 18:56:26 10° S 19:02:00 71° ESE 19:03:19 52° NE
CZ-4 R/B 3.8 18:59:42 10° SW 19:02:47 22° W 19:05:56 10° NW
Cosmos 1244 Rocket 4.3 18:57:13 10° NNW 19:03:23 70° ENE 19:06:01 36° SSE
Cosmos 1269 Rocket 4.4 18:58:19 10° NW 19:03:36 65° WSW 19:07:20 19° SSE
Meteor 1-15 Rocket 4.3 18:58:51 10° NNW 19:04:50 85° WSW 19:10:46 10° SSE
Cosmos 1818 3.6 19:00:04 10° SW 19:05:25 62° SE 19:05:25 62° SE
Cosmos 1844 Rocket 3.7 19:01:35 10° NW 19:06:31 30° NNE 19:06:32 30° NNE
Cosmos 2297 Rocket 3.1 19:01:55 10° NW 19:07:20 47° WSW 19:12:43 10° S
CENTAUR R/B 2.9 19:00:43 10° WNW 19:08:06 86° SSW 19:11:14 42° ESE
Cosmos 2084 Rocket 4.0 19:04:30 10° W 19:07:46 50° NW 19:07:46 50° NW
SKYMED 2 4.2 19:10:30 47° SSW 19:10:30 47° SSW 19:13:37 10° SSW
Cosmos 489 Rocket 4.4 19:05:21 10° SSW 19:11:39 68° ESE 19:12:25 62° ENE
Cosmos 1898 Rocket 3.5 19:09:56 10° SW 19:15:10 78° NW 19:15:54 65° N
Cosmos 2227 4.1 19:09:47 10° NW 19:15:36 77° NE 19:15:55 75° E
Meteor 2-4 Rocket 3.8 19:14:19 10° S 19:18:36 56° S 19:18:36 56° S
Cosmos 2298 Rocket 3.9 19:18:55 10° SSW 19:24:10 86° WSW 19:24:10 86° WSW
Cosmos 1943 Rocket 2.9 19:22:31 10° WSW 19:28:00 48° NW 19:29:17 41° N
Meteor 1-19 Rocket 4.3 19:26:18 10° SSW 19:32:01 75° WNW 19:33:48 46° N
Cosmos 494 Rocket 4.1 19:27:28 10° NW 19:32:41 75° WSW 19:32:41 75° WSW
Cosmos 1937 Rocket 3.6 19:28:14 10° SW 19:33:04 72° W 19:33:04 72° W
COSMOS 2455 3.1 19:27:40 10° NW 19:33:19 56° N 19:33:19 56° N
SL-08 R/B 4.4 19:28:08 10° NNW 19:34:11 75° NE 19:34:11 75° NE
Cosmos 1745 Rocket 4.3 19:31:30 10° NNW 19:36:15 52° NNE 19:36:15 52° NNE
Resurs 01 Rocket 3.8 19:41:20 18° NNW 19:41:20 18° NNW 19:42:27 10° NNW
NOSS 3-1 (C) 3.6 19:41:05 10° W 19:47:28 75° NNW 19:47:57 71° NNE
Cosmos 2263 Rocket 2.9 19:47:21 10° NW 19:51:21 46° NNW 19:51:21 46° NNW
COSMO-SKYMED 1 4.4 19:59:05 27° WSW 19:59:05 27° WSW 20:01:21 10° SW
ATLAS 2AS CENTAUR R/B 3.1 20:00:24 10° SW 20:07:29 65° S 20:07:29 65° S
Cosmos 2369 Rocket 3.5 20:04:04 10° W 20:09:01 33° NNW 20:09:01 33° NNW
USA 229 DEB 3.9 20:14:18 10° W 20:20:33 65° NNW 20:20:33 65° NNW
USA 229 3.9 20:14:24 10° W 20:20:39 65° NNW 20:20:39 65° NNW
NOSS 3-1 (A) 3.9 20:17:17 10° W 20:22:51 65° WNW 20:22:51 65° WNW
Cosmos 2278 Rocket 3.9 20:29:11 10° NW 20:32:04 26° NNW 20:32:04 26° NNW
CENTAUR R/B 3.8 20:51:25 10° WNW 20:58:26 43° SW 20:58:26 43° SW
Cosmos 1943 Rocket 4.2 21:08:03 10° WNW 21:10:48 23° NW 21:10:48 23° NW
ATLAS 2AS CENTAUR R/B 4.5 21:51:26 10° W 21:54:58 29° W 21:54:58 29° W
